[[{"header":{"parameterUnit":"m.s-1","parameterCategory":1,"la1":30.2991,"la2":30.254,"lo1":-89.0895,"lo2":-89.0444,"dy":0.0017,"dx":0.0017,"nx":28,"ny":28,"refTime":"2025-07-30T03:00:00:Z","depth":0,"parameterNumber":2,"parameterNumberName":"U-component_of_WINDS"},"data":[0,0,0,0,0,0,0,0,0,0,0,0,0,0,0,0,0,0,0,0,0,0,0,0,0,0,0,0,0,0,0,0,0,0,0,0,0,0,0,0,0,0,0,0,0,0,0,0,0,0,0,0,0,0,0,0,0,0,0.8719,0.8721,0,0.8907,0.8909,0.8912,0.8949,0.8948,0.8946,0.8945,0.9144,0.915,0.9157,0,0,0,0,0,0,0,0,0,0,0,0,0,0.8396,0.8402,0.8719,0.8721,0.8723,0.8907,0.8909,0.8912,0.8949,0.8948,0.8946,0.8944,0.9142,0.915,0.9158,0,0,0,0,0,0,0,0,0,0,0,0,0,0.8555,0.8403,0.8718,0.8764,0.877,0.8906,0.891,0.8913,0.895,0.8948,0.8945,0.8943,0.9139,0.9149,0.9159,0.9265,0,0,0.9189,0.9194,0,0,0,0,0,0,0,0,0.8546,0.8567,0.8755,0.8761,0.8768,0.8902,0.8869,0.9031,0.895,0.8882,0.8945,0.8942,0.9066,0.9082,0.9122,0.9274,0.9283,0.919,0.9196,0.9201,0.9203,0,0,0,0,0,0,0,0.8535,0.8559,0.8794,0.8758,0.8766,0.8777,0.8797,0.89,0.8984,0.8888,0.8891,0.8912,0.9069,0.9112,0.9127,0.9286,0.919,0.9199,0.9205,0.9209,0.9534,0.9536,0,0,0,0,0,0,0.8515,0.855,0.8788,0.8799,0.8649,0.8784,0.8807,0.8862,0.8983,0.8999,0.8914,0.8913,0.9096,0.9115,0.9134,0.9267,0.92,0.921,0.9216,0.9531,0.9534,0.9537,0,0,0,0,0,0,0.8508,0.8536,0.878,0.8675,0.8707,0.8792,0.8853,0.8866,0.891,0.9003,0.9018,0.8942,0.9095,0.912,0.9231,0.9274,0.9214,0.9224,0.9528,0.9532,0.9536,0.9532,0,0,0,0,0,0,0.8499,0.8533,0.8574,0.8676,0.8713,0.8873,0.8856,0.8872,0.8926,0.8927,0.9034,0.9049,0.9095,0.9216,0.9241,0.9287,0.9231,0.9525,0.953,0.9534,0.9528,0.9535,0.9541,0,0,0,0,0,0.8487,0.8567,0.8576,0.8604,0.8765,0.8875,0.8896,0.8946,0.8929,0.8971,0.9031,0.9046,0.9264,0.9227,0.9256,0.9305,0.9522,0.9528,0.9534,0.9526,0.9534,0.954,0,0,0,0,0,0,0.847,0.8581,0.8592,0.8707,0.8781,0.8881,0.8936,0.8953,0.9035,0.9033,0.9093,0.9117,0.9225,0.9276,0.9232,0.9413,0.9393,0.9404,0.9377,0.9385,0.9391,0.9377,0.924,0,0,0,0,0,0.8479,0.8558,0.8651,0.8744,0.878,0.8851,0.8901,0.8932,0.9013,0.9045,0.9113,0.9191,0.9278,0.9334,0.9419,0.9535,0.9559,0.9583,0.9588,0.9593,0.9603,0.9669,0.968,0.9556,0.9556,0.9556,0,0,0.85,0.857,0.8617,0.8742,0.8803,0.8885,0.8878,0.8965,0.9026,0.9059,0.9168,0.922,0.9312,0.9426,0.948,0.9472,0.9642,0.96,0.9603,0.9612,0.9676,0.9688,0.9698,0.956,0.956,0.9559,0,0,0.858,0.864,0.8723,0.8784,0.8875,0.8922,0.8941,0.9039,0.9074,0.9183,0.9209,0.9284,0.9431,0.9496,0.9548,0.9648,0.9665,0.9674,0.9707,0.977,0.9779,0.9788,0.9825,0.9837,0.9683,0.9683,0.9683,0,0.8595,0.8717,0.8764,0.885,0.8904,0.8934,0.902,0.9077,0.9192,0.923,0.9218,0.9403,0.9467,0.9596,0.962,0.9661,0.9687,0.9664,0.9774,0.9783,0.9792,0.9828,0.9842,0.9684,0.9684,0.9684,0.9684,0,0.8731,0.8816,0.8872,0.898,0.9041,0.9126,0.9187,0.9243,0.9268,0.9316,0.9427,0.9504,0.9604,0.9637,0.9663,0.977,0.9762,0.9761,0.9742,0.9804,0.9839,0.9853,0.9685,0.9685,0.9684,0.9684,0,0,0.8809,0.8939,0.8959,0.9008,0.911,0.9177,0.9263,0.9359,0.9406,0.9484,0.9558,0.9681,0.968,0.9739,0.9773,0.9827,0.9902,0.982,0.9823,0.9834,1.0025,1.0026,1.0041,0.9913,0.9916,0.9918,1.0018,0,0.8902,0.9055,0.9099,0.9229,0.9308,0.9335,0.9411,0.9482,0.9528,0.9603,0.9654,0.974,0.9733,0.9768,0.9823,0.9881,0.9942,0.9875,0.9985,0.9988,0.9963,1.0059,1.0061,1.0152,1.0031,1.0034,1.0036,0,0.9032,0.9109,0.9246,0.9336,0.9371,0.9437,0.9528,0.9598,0.968,0.9709,0.9773,0.9801,0.9893,0.9866,0.9994,0.9947,0.9994,1.0029,1.0034,1.0048,1.0017,1.0077,1.0182,1.0196,1.0057,1.0055,1.0054,0,0.9076,0.9214,0.9314,0.9355,0.9462,0.9508,0.9556,0.9634,0.9688,0.9768,0.9804,0.9893,0.9943,1.0012,1.0064,1.0039,1.0187,1.0165,1.0216,1.0215,1.0249,1.0246,1.0363,1.0276,1.0275,1.0275,1.0275,0,0.9176,0.9259,0.9335,0.9396,0.949,0.9539,0.9631,0.968,0.9749,0.9821,0.9851,0.9919,0.9982,1.0058,1.0099,1.0199,1.0221,1.0249,1.0259,1.0247,1.0244,1.0281,1.0277,1.0279,1.0278,1.0277,1.0277,0,0.9243,0.9296,0.9407,0.9498,0.9523,0.9588,0.9667,0.9729,0.9774,0.9865,0.9889,0.9962,1.0053,1.011,1.0227,1.0254,1.0364,1.0372,1.0336,1.0342,1.039,1.0385,1.0537,1.0559,1.0455,1.0456,1.0456,0,0.9304,0.9368,0.9465,0.9515,0.9562,0.9641,0.9696,0.9746,0.9802,0.9898,0.9948,1.004,1.0116,1.026,1.0325,1.0413,1.0424,1.0471,1.0438,1.0424,1.0427,1.0423,1.043,1.0478,1.0478,1.0479,1.048,0,0.9408,0.9431,0.9507,0.9593,0.9656,0.9727,0.9797,0.9836,0.9899,0.996,1.0052,1.0111,1.0228,1.032,1.0413,1.0464,1.0483,1.0489,1.0506,1.0495,1.0472,1.0486,1.0353,1.0486,1.0485,1.0485,1.0485,1.0484,0.9475,0.9533,0.961,0.9694,0.9751,0.9816,0.9877,0.9929,1.0006,1.0104,1.0129,1.0225,1.0304,1.0431,1.0483,1.056,1.0554,1.0578,1.0585,1.059,1.0591,1.0458,1.0577,1.0577,1.0577,1.0577,1.0577,0,0.9581,0.9631,0.9708,0.9804,0.987,0.9878,0.9956,1.0011,1.0095,1.0165,1.0239,1.0344,1.0432,1.0502,1.0593,1.0641,1.0652,1.0663,1.0661,1.0672,1.0591,1.0568,1.0652,1.0652,1.0652,1.0652,1.0652,1.0652,0.9644,0.9743,0.9774,0.9901,0.9951,1.0044,1.0087,1.0147,1.0203,1.0319,1.0391,1.0435,1.0505,1.0601,1.0682,1.07,1.0733,1.0743,1.0763,1.0686,1.0678,1.067,1.0649,1.0749,1.0749,1.0838,1.0839,1.0839]},{"header":{"parameterUnit":"m.s-1","parameterCategory":1,"la1":30.2991,"la2":30.254,"lo1":-89.0895,"lo2":-89.0444,"dy":0.0017,"dx":0.0017,"nx":28,"ny":28,"refTime":"2025-07-30T03:00:00:Z","depth":0,"parameterNumber":3,"parameterNumberName":"V-component_of_WINDS"},"data":[0,0,0,0,0,0,0,0,0,0,0,0,0,0,0,0,0,0,0,0,0,0,0,0,0,0,0,0,0,0,0,0,0,0,0,0,0,0,0,0,0,0,0,0,0,0,0,0,0,0,0,0,0,0,0,0,0,0,2.0013,2.0013,0,2.0064,2.0064,2.0065,2.0019,2.0017,2.0015,2.0013,2.0068,2.0071,2.0074,0,0,0,0,0,0,0,0,0,0,0,0,0,1.9874,1.9877,2.0013,2.0013,2.0014,2.0064,2.0064,2.0065,2.0019,2.0017,2.0015,2.0012,2.0067,2.007,2.0074,0,0,0,0,0,0,0,0,0,0,0,0,0,1.9931,1.9878,2.0013,1.9997,1.9996,2.0064,2.0064,2.0065,2.002,2.0017,2.0014,2.0011,2.0065,2.007,2.0075,2.0161,0,0,2.0089,2.0092,0,0,0,0,0,0,0,0,1.9927,1.9936,1.9999,1.9998,1.9997,2.0032,2.0035,2.0098,2.002,2.0011,2.0013,2.001,2.0058,2.0063,2.0079,2.0164,2.0166,2.009,2.0093,2.0095,2.0096,0,0,0,0,0,0,0,1.9924,1.9933,2.0033,1.9999,1.9999,1.9987,1.9992,2.0047,2.005,2.0011,2.0008,2.0015,2.0057,2.0075,2.008,2.0167,2.009,2.0094,2.0097,2.0099,2.0318,2.0321,0,0,0,0,0,0,1.9921,1.993,2.0031,2.0034,1.9955,1.9992,1.9997,2.0024,2.0049,2.005,2.0017,2.0012,2.0068,2.0075,2.0082,2.018,2.0095,2.0099,2.0102,2.0316,2.0319,2.0322,0,0,0,0,0,0,1.9918,1.9931,2.0029,1.9981,1.9993,1.9997,2.0027,2.0026,2.0044,2.0053,2.0054,2.0034,2.0066,2.0075,2.014,2.0182,2.0101,2.0106,2.0312,2.0317,2.0321,2.038,0,0,0,0,0,0,1.9915,1.993,1.9963,1.9983,1.9996,2.0087,2.003,2.0029,2.0052,2.0046,2.007,2.0071,2.0064,2.0133,2.0145,2.0187,2.011,2.0308,2.0314,2.0319,2.0375,2.0386,2.0396,0,0,0,0,0,1.991,1.998,1.9965,1.9978,2.0038,2.009,2.0097,2.0088,2.0055,2.0088,2.0094,2.007,2.0176,2.014,2.0153,2.0197,2.0306,2.0312,2.0319,2.037,2.0384,2.0396,0,0,0,0,0,0,1.9967,1.9982,1.9966,2.0045,2.0066,2.0082,2.0123,2.0104,2.0136,2.013,2.0117,2.0123,2.019,2.0201,2.0161,2.0279,2.0235,2.0245,2.027,2.0283,2.0294,2.0289,2.0114,0,0,0,0,0,1.9989,2.003,2.0041,2.0109,2.012,2.012,2.0142,2.0133,2.0155,2.0164,2.0175,2.0197,2.0234,2.026,2.0296,2.0376,2.0379,2.0413,2.0423,2.0432,2.044,2.0478,2.0492,2.0344,2.0344,2.0344,0,0,2.0034,2.0047,2.0074,2.012,2.0136,2.0177,2.0128,2.0175,2.0205,2.0172,2.0232,2.0241,2.0265,2.0336,2.0369,2.0347,2.0481,2.0441,2.0448,2.045,2.0487,2.0501,2.0513,2.0349,2.0348,2.0347,0,0,2.0137,2.0153,2.0208,2.0224,2.0247,2.0246,2.0259,2.0277,2.0281,2.0341,2.0315,2.0351,2.0418,2.0434,2.0451,2.0556,2.0534,2.0568,2.0623,2.0661,2.0673,2.0683,2.0716,2.0729,2.0576,2.0576,2.0576,0,2.019,2.0251,2.024,2.0287,2.0306,2.0276,2.0331,2.0347,2.0381,2.0395,2.037,2.0449,2.0464,2.0537,2.0562,2.0578,2.0591,2.0564,2.0672,2.0682,2.0692,2.0723,2.0736,2.058,2.058,2.0579,2.0579,0,2.0313,2.0356,2.0399,2.0429,2.0454,2.0505,2.05,2.0526,2.0514,2.0515,2.0575,2.0591,2.0626,2.0644,2.0634,2.0714,2.0699,2.0674,2.0629,2.071,2.0739,2.0751,2.0585,2.0584,2.0583,2.0582,0,0,2.0454,2.0475,2.049,2.0502,2.0524,2.0556,2.0605,2.0639,2.0659,2.0684,2.0722,2.0777,2.0752,2.0772,2.0763,2.0797,2.0873,2.0767,2.0767,2.0782,2.0958,2.0974,2.0989,2.0859,2.0862,2.0864,2.0954,0,2.0554,2.0637,2.0626,2.0706,2.0743,2.0713,2.0755,2.0772,2.0774,2.0805,2.0807,2.0844,2.0811,2.0822,2.0854,2.0857,2.0908,2.0851,2.0893,2.0895,2.0885,2.1005,2.1023,2.1108,2.0966,2.0968,2.097,0,2.0682,2.0707,2.079,2.0801,2.0817,2.0854,2.0882,2.0913,2.0931,2.0929,2.0949,2.0933,2.098,2.0936,2.0999,2.096,2.0977,2.0981,2.0984,2.0985,2.0935,2.1006,2.1136,2.1147,2.0988,2.0987,2.0986,0,2.0771,2.0826,2.0881,2.0893,2.0909,2.0935,2.0944,2.0959,2.0978,2.1003,2.1014,2.1045,2.1061,2.1084,2.1076,2.1045,2.1139,2.1095,2.1137,2.1137,2.1156,2.1155,2.1287,2.1173,2.1172,2.1172,2.1172,0,2.0882,2.0932,2.0921,2.0954,2.1009,2.0996,2.105,2.1055,2.1068,2.11,2.1078,2.1109,2.1098,2.1129,2.1123,2.1173,2.1182,2.118,2.1178,2.1181,2.118,2.1189,2.1182,2.1176,2.1175,2.1174,2.1174,0,2.0989,2.0984,2.1041,2.1051,2.1054,2.1094,2.1101,2.1132,2.1131,2.1173,2.1182,2.118,2.1214,2.1209,2.1248,2.1244,2.1305,2.1297,2.1299,2.1295,2.1336,2.1331,2.1476,2.1493,2.1371,2.1372,2.1373,0,2.1059,2.1096,2.1109,2.1128,2.1137,2.117,2.1188,2.1176,2.1197,2.1217,2.1245,2.1277,2.1301,2.1357,2.1359,2.1387,2.1378,2.1427,2.1382,2.1382,2.1374,2.137,2.1372,2.1435,2.1436,2.1437,2.1438,0,2.1181,2.1175,2.1203,2.1228,2.1251,2.1271,2.1289,2.1306,2.1295,2.1319,2.1352,2.1371,2.1408,2.1439,2.1465,2.1473,2.1453,2.1452,2.1463,2.1465,2.1462,2.146,2.1319,2.1449,2.1448,2.1447,2.1446,2.1446,2.1269,2.1299,2.1311,2.1341,2.1353,2.1369,2.1396,2.1398,2.1425,2.1453,2.1445,2.1482,2.1496,2.1528,2.1538,2.1566,2.1548,2.1565,2.1568,2.1571,2.1574,2.146,2.1572,2.1571,2.1571,2.1571,2.1571,0,2.1386,2.1392,2.142,2.1443,2.1466,2.1445,2.1463,2.1483,2.1516,2.153,2.1553,2.159,2.1619,2.1622,2.1649,2.167,2.1662,2.1678,2.1674,2.1676,2.1591,2.1577,2.1684,2.1684,2.1684,2.1684,2.1684,2.1684,2.145,2.1498,2.1493,2.1546,2.1552,2.1586,2.1598,2.1612,2.1622,2.1663,2.1686,2.1688,2.1697,2.1724,2.1748,2.1748,2.1758,2.1777,2.1773,2.1694,2.1682,2.1671,2.1658,2.178,2.178,2.1854,2.1855,2.1856]}]]